Вернуться в каталог

INTELSAT 709

АктивенСвязьGEO
NORAD 23915·PAYLOAD· XX

Запущен Jun 15, 1996 с Guiana Space Centre

Loading…

TLE

СвежийSource: Space-Track

Эпоха: Sep 14, 2026, 08:22 UTC

1 23915U 96035A   26257.34917168 -.00000197  00000-0  00000-0 0  9992
2 23915  10.9223  46.7902 0019304 227.4103 143.9071  0.99180516110290

Отслеживайте INTELSAT 709 в реальном времени с AllMySat

Download on the App Store